Retour au catalogue

STARLINK-32920

ActifCommunicationsVLEO
NORAD 62925·PAYLOAD·🇺🇸 United States

Lancé Feb 8, 2025 depuis Cape Canaveral Space Force Station

Loading…

Prochains Passages (prochaines 24 heures)

TLE

FraisSource: CelesTrak SupGP

Époque: Sep 14, 2026, 22:57 UTC

1 62925C 25027U   26257.95673611 -.00011862  00000+0 -42972-3 0  2573
2 62925  43.0015 139.9436 0001431 269.0288 275.9010 15.27577081    16

Suivez STARLINK-32920 en temps réel avec AllMySat

Download on the App Store